| time (UTC) | temp F | wind direction | speed MPH | gust MPH | rain 1hr in | rain 24hr in | rain mn in | humidity % | barometer mb |
| 20260507085048 | 52 | 167 | 0.0 | 1.0 | 0.00 | 0.00 | 0.00 | 87 | 1023.3 |
| 20260507084601 | 52 | 169 | 0.0 | 1.0 | 0.00 | 0.00 | 0.00 | 87 | 1023.2 |
| 20260507084047 | 52 | 0 | 0.0 | 3.0 | 0.00 | 0.00 | 0.00 | 87 | 1023.4 |
| 20260507083546 | 52 | 0 | 0.0 | 3.0 | 0.00 | 0.00 | 0.00 | 86 | 1023.3 |
| 20260507083110 | 52 | 189 | 0.0 | 3.0 | 0.00 | 0.00 | 0.00 | 87 | 1023.2 |
| 20260507082546 | 52 | 192 | 1.0 | 3.0 | 0.00 | 0.00 | 0.00 | 87 | 1023.2 |
| 20260507082049 | 52 | 157 | 1.0 | 3.0 | 0.00 | 0.00 | 0.00 | 87 | 1023.3 |
| 20260507081600 | 52 | 173 | 1.0 | 3.0 | 0.00 | 0.00 | 0.00 | 88 | 1023.2 |
| 20260507081048 | 53 | 182 | 1.0 | 3.0 | 0.00 | 0.00 | 0.00 | 88 | 1023.2 |
| 20260507080547 | 53 | 184 | 1.0 | 2.0 | 0.00 | 0.00 | 0.00 | 88 | 1023.2 |
| 20260507080053 | 53 | 221 | 0.0 | 2.0 | 0.00 | 0.00 | 0.00 | 88 | 1023.3 |
| 20260507075547 | 53 | 241 | 0.0 | 2.0 | 0.00 | 0.00 | 0.00 | 88 | 1023.2 |
| 20260507075048 | 53 | 188 | 0.0 | 4.0 | 0.00 | 0.00 | 0.00 | 88 | 1023.4 |
| 20260507074558 | 53 | 176 | 0.0 | 4.0 | 0.00 | 0.00 | 0.00 | 88 | 1023.2 |
| 20260507074047 | 53 | 181 | 1.0 | 4.0 | 0.00 | 0.00 | 0.00 | 88 | 1023.4 |
| 20260507073547 | 53 | 170 | 1.0 | 4.0 | 0.00 | 0.00 | 0.00 | 88 | 1023.3 |
| 20260507073100 | 53 | 170 | 1.0 | 3.0 | 0.00 | 0.00 | 0.00 | 88 | 1023.3 |
| 20260507072547 | 53 | 238 | 1.0 | 3.0 | 0.00 | 0.00 | 0.00 | 88 | 1023.3 |
| 20260507072051 | 53 | 216 | 2.0 | 3.0 | 0.00 | 0.00 | 0.00 | 87 | 1023.1 |
| 20260507071555 | 53 | 223 | 2.0 | 5.0 | 0.00 | 0.00 | 0.00 | 87 | 1023.1 |
| 20260507071048 | 53 | 210 | 2.0 | 5.0 | 0.00 | 0.00 | 0.00 | 87 | 1023.2 |
| 20260507070550 | 53 | 238 | 3.0 | 5.0 | 0.00 | 0.00 | 0.00 | 87 | 1023.2 |
| 20260507070054 | 53 | 225 | 1.0 | 3.0 | 0.00 | 0.00 | 0.00 | 87 | 1023.2 |
| 20260507065546 | 53 | 219 | 1.0 | 3.0 | 0.00 | 0.00 | 0.00 | 87 | 1023.2 |
| 20260507065047 | 53 | 250 | 1.0 | 4.0 | 0.00 | 0.00 | 0.00 | 86 | 1023.2 |
| 20260507064602 | 53 | 233 | 2.0 | 4.0 | 0.00 | 0.00 | 0.00 | 86 | 1023.1 |
| 20260507064050 | 53 | 227 | 2.0 | 3.0 | 0.00 | 0.00 | 0.00 | 86 | 1023.1 |
| 20260507063547 | 53 | 233 | 2.0 | 4.0 | 0.00 | 0.00 | 0.00 | 86 | 1023.0 |
| 20260507063056 | 53 | 237 | 2.0 | 4.0 | 0.00 | 0.00 | 0.00 | 86 | 1023.1 |
| 20260507062549 | 54 | 223 | 1.0 | 5.0 | 0.00 | 0.00 | 0.00 | 86 | 1023.1 |
| 20260507062047 | 54 | 218 | 2.0 | 5.0 | 0.00 | 0.00 | 0.00 | 85 | 1023.0 |
| 20260507061559 | 54 | 259 | 2.0 | 4.0 | 0.00 | 0.00 | 0.00 | 85 | 1023.1 |
| 20260507061047 | 54 | 242 | 1.0 | 4.0 | 0.00 | 0.00 | 0.00 | 85 | 1023.1 |
| 20260507060547 | 54 | 250 | 1.0 | 4.0 | 0.00 | 0.00 | 0.00 | 84 | 1023.1 |
| 20260507060100 | 54 | 234 | 2.0 | 4.0 | 0.00 | 0.00 | 0.00 | 84 | 1023.1 |
| 20260507055547 | 54 | 236 | 0.0 | 2.0 | 0.00 | 0.00 | 0.00 | 84 | 1023.1 |
| 20260507055046 | 55 | 264 | 0.0 | 2.0 | 0.00 | 0.00 | 0.00 | 84 | 1023.1 |
| 20260507054554 | 55 | 0 | 0.0 | 2.0 | 0.00 | 0.00 | 0.00 | 83 | 1023.0 |
| 20260507054047 | 55 | 249 | 1.0 | 2.0 | 0.00 | 0.00 | 0.00 | 83 | 1023.1 |
| 20260507053547 | 55 | 248 | 0.0 | 1.0 | 0.00 | 0.00 | 0.00 | 82 | 1023.1 |
| 20260507053056 | 55 | 234 | 0.0 | 1.0 | 0.00 | 0.00 | 0.00 | 82 | 1023.1 |
| 20260507052548 | 55 | 0 | 0.0 | 1.0 | 0.00 | 0.00 | 0.00 | 82 | 1023.2 |
| 20260507052046 | 55 | 0 | 0.0 | 1.0 | 0.00 | 0.00 | 0.00 | 81 | 1023.2 |
| 20260507051556 | 55 | 0 | 0.0 | 3.0 | 0.00 | 0.00 | 0.00 | 81 | 1023.2 |
| 20260507051047 | 55 | 239 | 0.0 | 3.0 | 0.00 | 0.00 | 0.00 | 81 | 1023.2 |
| 20260507050550 | 55 | 61 | 0.0 | 1.0 | 0.00 | 0.00 | 0.00 | 81 | 1023.2 |
| 20260507050058 | 55 | 0 | 0.0 | 3.0 | 0.00 | 0.00 | 0.00 | 80 | 1023.1 |
| 20260507045549 | 55 | 0 | 0.0 | 3.0 | 0.00 | 0.00 | 0.00 | 80 | 1023.1 |
| 20260507045046 | 55 | 0 | 0.0 | 3.0 | 0.00 | 0.00 | 0.00 | 80 | 1023.1 |
| 20260507044553 | 55 | 0 | 0.0 | 1.0 | 0.00 | 0.00 | 0.00 | 80 | 1023.2 |
| 20260507044047 | 56 | 0 | 0.0 | 1.0 | 0.00 | 0.00 | 0.00 | 80 | 1023.1 |
| 20260507043547 | 56 | 250 | 0.0 | 4.0 | 0.00 | 0.00 | 0.00 | 80 | 1023.1 |
| 20260507043051 | 56 | 266 | 1.0 | 4.0 | 0.00 | 0.00 | 0.00 | 80 | 1023.0 |
| 20260507042547 | 56 | 231 | 0.0 | 2.0 | 0.00 | 0.00 | 0.00 | 80 | 1022.9 |
| 20260507042048 | 56 | 193 | 0.0 | 2.0 | 0.00 | 0.00 | 0.00 | 80 | 1023.0 |
| 20260507041549 | 56 | 0 | 0.0 | 2.0 | 0.00 | 0.00 | 0.00 | 79 | 1023.0 |
| 20260507041050 | 56 | 214 | 1.0 | 3.0 | 0.00 | 0.00 | 0.00 | 79 | 1023.1 |
| 20260507040547 | 56 | 169 | 0.0 | 3.0 | 0.00 | 0.00 | 0.00 | 79 | 1023.0 |
| 20260507040054 | 56 | 0 | 0.0 | 3.0 | 0.00 | 0.00 | 0.00 | 79 | 1022.9 |
| 20260507035547 | 56 | 0 | 1.0 | 3.0 | 0.00 | 0.00 | 0.00 | 79 | 1022.7 |
| 20260507035047 | 56 | 0 | 1.0 | 4.0 | 0.00 | 0.00 | 0.00 | 79 | 1022.7 |
| 20260507034556 | 56 | 237 | 2.0 | 4.0 | 0.00 | 0.00 | 0.00 | 79 | 1022.7 |
| 20260507034116 | 56 | 212 | 1.0 | 3.0 | 0.00 | 0.00 | 0.00 | 79 | 1022.6 |
| 20260507033547 | 56 | 0 | 0.0 | 2.0 | 0.00 | 0.00 | 0.00 | 79 | 1022.5 |
| 20260507033058 | 57 | 306 | 0.0 | 1.0 | 0.00 | 0.00 | 0.00 | 78 | 1022.6 |
| 20260507032547 | 57 | 0 | 0.0 | 1.0 | 0.00 | 0.00 | 0.00 | 78 | 1022.6 |
| 20260507032050 | 57 | 0 | 0.0 | 3.0 | 0.00 | 0.00 | 0.00 | 78 | 1022.4 |
| 20260507031557 | 57 | 231 | 0.0 | 3.0 | 0.00 | 0.00 | 0.00 | 78 | 1022.4 |
| 20260507031049 | 57 | 25 | 0.0 | 3.0 | 0.00 | 0.00 | 0.00 | 77 | 1022.3 |
| 20260507030546 | 57 | 188 | 0.0 | 3.0 | 0.00 | 0.00 | 0.00 | 77 | 1022.3 |
| 20260507030052 | 57 | 162 | 0.0 | 2.0 | 0.00 | 0.00 | 0.00 | 77 | 1022.3 |
| 20260507025549 | 57 | 0 | 0.0 | 5.0 | 0.00 | 0.00 | 0.00 | 77 | 1022.3 |
| 20260507025052 | 57 | 0 | 1.0 | 5.0 | 0.00 | 0.00 | 0.00 | 77 | 1022.3 |
| 20260507024625 | 57 | 22 | 0.0 | 3.0 | 0.00 | 0.00 | 0.00 | 77 | 1022.3 |
| 20260507024047 | 58 | 215 | 0.0 | 4.0 | 0.00 | 0.00 | 0.00 | 76 | 1022.2 |
| 20260507023554 | 58 | 210 | 0.0 | 4.0 | 0.00 | 0.00 | 0.00 | 76 | 1022.2 |
| 20260507023055 | 58 | 238 | 2.0 | 4.0 | 0.00 | 0.00 | 0.00 | 76 | 1022.2 |
| 20260507022554 | 58 | 0 | 0.0 | 4.0 | 0.00 | 0.00 | 0.00 | 76 | 1022.2 |
| 20260507022047 | 58 | 0 | 1.0 | 4.0 | 0.00 | 0.00 | 0.00 | 75 | 1022.0 |
| 20260507021552 | 58 | 0 | 0.0 | 2.0 | 0.00 | 0.00 | 0.00 | 76 | 1022.1 |
| 20260507021047 | 58 | 259 | 1.0 | 2.0 | 0.00 | 0.00 | 0.00 | 76 | 1022.1 |
| 20260507020547 | 58 | 0 | 0.0 | 5.0 | 0.00 | 0.00 | 0.00 | 76 | 1022.1 |
| 20260507020107 | 58 | 223 | 0.0 | 5.0 | 0.00 | 0.00 | 0.00 | 76 | 1022.1 |
| 20260507015546 | 59 | 238 | 3.0 | 5.0 | 0.00 | 0.00 | 0.00 | 75 | 1022.1 |
| 20260507015047 | 59 | 225 | 1.0 | 4.0 | 0.00 | 0.00 | 0.00 | 75 | 1022.1 |
| 20260507014605 | 59 | 225 | 1.0 | 4.0 | 0.00 | 0.00 | 0.00 | 75 | 1022.1 |
| 20260507014045 | 59 | 217 | 0.0 | 4.0 | 0.00 | 0.00 | 0.00 | 75 | 1022.0 |
| 20260507013546 | 60 | 276 | 0.0 | 4.0 | 0.00 | 0.00 | 0.00 | 75 | 1022.1 |
| 20260507013055 | 60 | 266 | 1.0 | 3.0 | 0.00 | 0.00 | 0.00 | 74 | 1022.0 |
| 20260507012547 | 60 | 231 | 1.0 | 3.0 | 0.00 | 0.00 | 0.00 | 74 | 1022.0 |
| 20260507012047 | 60 | 221 | 0.0 | 3.0 | 0.00 | 0.00 | 0.00 | 75 | 1021.9 |
| 20260507011551 | 60 | 47 | 0.0 | 3.0 | 0.00 | 0.00 | 0.00 | 74 | 1022.0 |
| 20260507011046 | 60 | 233 | 0.0 | 3.0 | 0.00 | 0.00 | 0.00 | 75 | 1022.0 |
| 20260507010547 | 60 | 236 | 0.0 | 5.0 | 0.00 | 0.00 | 0.00 | 75 | 1021.9 |
| 20260507010052 | 60 | 20 | 0.0 | 5.0 | 0.00 | 0.00 | 0.00 | 75 | 1022.1 |
| 20260507005546 | 60 | 240 | 0.0 | 2.0 | 0.00 | 0.00 | 0.00 | 73 | 1022.2 |
| 20260507005047 | 60 | 0 | 1.0 | 3.0 | 0.00 | 0.00 | 0.00 | 74 | 1022.2 |
| 20260507004552 | 60 | 176 | 0.0 | 3.0 | 0.00 | 0.00 | 0.00 | 74 | 1022.2 |
| 20260507004047 | 60 | 215 | 1.0 | 3.0 | 0.00 | 0.00 | 0.00 | 73 | 1022.2 |
| 20260507003547 | 60 | 233 | 1.0 | 4.0 | 0.00 | 0.00 | 0.00 | 73 | 1022.2 |
| 20260507003051 | 60 | 243 | 1.0 | 4.0 | 0.00 | 0.00 | 0.00 | 73 | 1022.3 |
| 20260507002547 | 60 | 140 | 1.0 | 4.0 | 0.00 | 0.00 | 0.00 | 72 | 1022.3 |
| 20260507002047 | 60 | 232 | 2.0 | 4.0 | 0.00 | 0.00 | 0.00 | 72 | 1022.3 |
| 20260507001601 | 60 | 0 | 2.0 | 3.0 | 0.00 | 0.00 | 0.00 | 72 | 1022.3 |
| 20260507001045 | 61 | 231 | 1.0 | 4.0 | 0.00 | 0.00 | 0.00 | 72 | 1022.3 |
| 20260507000547 | 61 | 79 | 0.0 | 4.0 | 0.00 | 0.00 | 0.00 | 71 | 1022.4 |
| 20260507000055 | 61 | 244 | 0.0 | 4.0 | 0.00 | 0.00 | 0.00 | 73 | 1022.4 |
| 20260506235546 | 61 | 202 | 1.0 | 4.0 | 0.00 | 0.00 | 0.00 | 72 | 1022.3 |
| 20260506235050 | 61 | 0 | 1.0 | 6.0 | 0.00 | 0.00 | 0.00 | 71 | 1022.4 |
| 20260506234601 | 61 | 162 | 1.0 | 6.0 | 0.00 | 0.00 | 0.00 | 71 | 1022.2 |
| 20260506234047 | 62 | 217 | 2.0 | 4.0 | 0.00 | 0.00 | 0.00 | 69 | 1022.2 |
| 20260506233549 | 62 | 221 | 0.0 | 5.0 | 0.00 | 0.00 | 0.00 | 70 | 1022.2 |
| 20260506233057 | 62 | 213 | 2.0 | 6.0 | 0.00 | 0.00 | 0.00 | 70 | 1022.2 |
| 20260506232546 | 62 | 276 | 2.0 | 6.0 | 0.00 | 0.00 | 0.00 | 70 | 1022.2 |
| 20260506232048 | 61 | 236 | 1.0 | 4.0 | 0.00 | 0.00 | 0.00 | 74 | 1022.3 |
| 20260506231558 | 60 | 184 | 2.0 | 4.0 | 0.00 | 0.00 | 0.00 | 73 | 1022.2 |
| 20260506231048 | 60 | 217 | 1.0 | 4.0 | 0.00 | 0.00 | 0.00 | 73 | 1022.2 |
| 20260506230546 | 60 | 255 | 0.0 | 3.0 | 0.00 | 0.00 | 0.00 | 73 | 1022.3 |
| 20260506230100 | 60 | 0 | 0.0 | 6.0 | 0.00 | 0.00 | 0.00 | 75 | 1022.3 |
| 20260506225547 | 60 | 234 | 1.0 | 6.0 | 0.00 | 0.00 | 0.00 | 74 | 1022.4 |
| 20260506225047 | 60 | 41 | 0.0 | 3.0 | 0.00 | 0.00 | 0.00 | 74 | 1022.4 |
| 20260506224552 | 60 | 222 | 1.0 | 3.0 | 0.00 | 0.00 | 0.00 | 74 | 1022.4 |
| 20260506224046 | 60 | 232 | 0.0 | 1.0 | 0.00 | 0.00 | 0.00 | 74 | 1022.4 |
| 20260506223549 | 59 | 0 | 0.0 | 3.0 | 0.00 | 0.00 | 0.00 | 75 | 1022.4 |
| 20260506223059 | 59 | 0 | 1.0 | 3.0 | 0.00 | 0.00 | 0.00 | 75 | 1022.5 |
| 20260506222547 | 59 | 4 | 1.0 | 3.0 | 0.00 | 0.00 | 0.00 | 74 | 1022.7 |
| 20260506222049 | 59 | 81 | 1.0 | 3.0 | 0.00 | 0.00 | 0.00 | 75 | 1022.6 |
| 20260506221554 | 59 | 228 | 0.0 | 3.0 | 0.00 | 0.00 | 0.00 | 76 | 1022.7 |
| 20260506221046 | 59 | 340 | 0.0 | 3.0 | 0.00 | 0.00 | 0.00 | 75 | 1022.9 |
| 20260506220547 | 59 | 0 | 1.0 | 2.0 | 0.00 | 0.00 | 0.00 | 75 | 1022.9 |
| 20260506220057 | 59 | 0 | 0.0 | 2.0 | 0.00 | 0.00 | 0.00 | 75 | 1022.8 |
| 20260506215546 | 59 | 229 | 0.0 | 2.0 | 0.00 | 0.00 | 0.00 | 76 | 1022.8 |
| 20260506215048 | 59 | 0 | 0.0 | 3.0 | 0.00 | 0.00 | 0.00 | 77 | 1022.7 |
| 20260506214553 | 58 | 0 | 1.0 | 6.0 | 0.00 | 0.00 | 0.00 | 76 | 1022.8 |
| 20260506214047 | 59 | 345 | 1.0 | 6.0 | 0.00 | 0.00 | 0.00 | 76 | 1022.8 |
| 20260506213546 | 59 | 51 | 0.0 | 2.0 | 0.00 | 0.00 | 0.00 | 76 | 1022.8 |
| 20260506213118 | 59 | 246 | 0.0 | 4.0 | 0.00 | 0.00 | 0.00 | 75 | 1022.7 |
| 20260506212547 | 59 | 0 | 1.0 | 4.0 | 0.00 | 0.00 | 0.00 | 75 | 1022.9 |
| 20260506212047 | 59 | 261 | 0.0 | 3.0 | 0.00 | 0.00 | 0.00 | 75 | 1022.7 |
| 20260506211604 | 59 | 328 | 0.0 | 3.0 | 0.00 | 0.00 | 0.00 | 75 | 1022.9 |
| 20260506211046 | 59 | 224 | 0.0 | 3.0 | 0.00 | 0.00 | 0.00 | 74 | 1022.7 |
| 20260506210545 | 59 | 239 | 0.0 | 3.0 | 0.00 | 0.00 | 0.00 | 75 | 1022.8 |
| 20260506205545 | 59 | 240 | 1.0 | 5.0 | 0.00 | 0.00 | 0.00 | 75 | 1022.8 |
| 20260506205047 | 59 | 219 | 2.0 | 5.0 | 0.00 | 0.00 | 0.00 | 75 | 1022.7 |
| 20260506204558 | 59 | 0 | 0.0 | 3.0 | 0.00 | 0.00 | 0.00 | 76 | 1022.7 |
| 20260506204046 | 59 | 247 | 0.0 | 3.0 | 0.00 | 0.00 | 0.00 | 76 | 1022.7 |
| 20260506203548 | 59 | 52 | 1.0 | 3.0 | 0.00 | 0.00 | 0.00 | 76 | 1022.7 |
| 20260506203054 | 59 | 226 | 1.0 | 4.0 | 0.00 | 0.00 | 0.00 | 77 | 1022.7 |
| 20260506202547 | 59 | 43 | 2.0 | 4.0 | 0.00 | 0.00 | 0.00 | 78 | 1022.5 |
| 20260506202049 | 59 | 203 | 2.0 | 5.0 | 0.00 | 0.00 | 0.00 | 77 | 1022.6 |
| 20260506201559 | 58 | 252 | 3.0 | 5.0 | 0.00 | 0.00 | 0.00 | 78 | 1022.5 |
| 20260506201048 | 58 | 188 | 1.0 | 4.0 | 0.00 | 0.00 | 0.00 | 78 | 1022.5 |
| 20260506200546 | 58 | 229 | 2.0 | 4.0 | 0.00 | 0.00 | 0.00 | 78 | 1022.5 |
| 20260506200059 | 58 | 135 | 0.0 | 3.0 | 0.00 | 0.00 | 0.00 | 79 | 1022.5 |
| 20260506195548 | 58 | 157 | 0.0 | 1.0 | 0.00 | 0.00 | 0.00 | 80 | 1022.5 |
| 20260506195048 | 58 | 0 | 0.0 | 3.0 | 0.00 | 0.00 | 0.00 | 79 | 1022.5 |
| 20260506194604 | 58 | 0 | 0.0 | 3.0 | 0.00 | 0.00 | 0.00 | 79 | 1022.6 |
| 20260506194050 | 58 | 0 | 0.0 | 4.0 | 0.00 | 0.00 | 0.00 | 81 | 1022.5 |
| 20260506193550 | 58 | 224 | 2.0 | 4.0 | 0.00 | 0.00 | 0.00 | 81 | 1022.4 |
| 20260506193054 | 58 | 170 | 1.0 | 2.0 | 0.00 | 0.00 | 0.00 | 81 | 1022.4 |
| 20260506192551 | 58 | 145 | 0.0 | 2.0 | 0.00 | 0.00 | 0.00 | 82 | 1022.3 |
| 20260506192049 | 57 | 0 | 0.0 | 2.0 | 0.00 | 0.00 | 0.00 | 81 | 1022.4 |
| 20260506191553 | 57 | 4 | 0.0 | 2.0 | 0.00 | 0.00 | 0.00 | 81 | 1022.3 |
| 20260506191047 | 57 | 0 | 0.0 | 4.0 | 0.00 | 0.00 | 0.00 | 82 | 1022.3 |
| 20260506190549 | 57 | 198 | 1.0 | 5.0 | 0.00 | 0.00 | 0.00 | 82 | 1022.4 |
| 20260506190055 | 57 | 179 | 3.0 | 5.0 | 0.00 | 0.00 | 0.00 | 82 | 1022.3 |
| 20260506185547 | 57 | 175 | 0.0 | 6.0 | 0.00 | 0.00 | 0.00 | 82 | 1022.4 |
| 20260506185049 | 57 | 166 | 2.0 | 6.0 | 0.00 | 0.00 | 0.00 | 82 | 1022.4 |
| 20260506184605 | 57 | 168 | 2.0 | 5.0 | 0.00 | 0.00 | 0.00 | 82 | 1022.5 |
| 20260506184047 | 57 | 174 | 1.0 | 5.0 | 0.00 | 0.00 | 0.00 | 81 | 1022.6 |
| 20260506183547 | 57 | 212 | 2.0 | 5.0 | 0.00 | 0.00 | 0.00 | 82 | 1022.6 |
| 20260506183103 | 57 | 199 | 2.0 | 6.0 | 0.00 | 0.00 | 0.00 | 81 | 1022.4 |
| 20260506182548 | 57 | 150 | 2.0 | 6.0 | 0.00 | 0.00 | 0.00 | 82 | 1022.2 |
| 20260506182052 | 57 | 153 | 2.0 | 6.0 | 0.00 | 0.00 | 0.00 | 82 | 1022.1 |
| 20260506181556 | 57 | 211 | 3.0 | 5.0 | 0.00 | 0.00 | 0.00 | 82 | 1022.0 |
| 20260506181051 | 57 | 162 | 2.0 | 6.0 | 0.00 | 0.00 | 0.00 | 82 | 1022.1 |
| 20260506180547 | 57 | 189 | 2.0 | 7.0 | 0.00 | 0.00 | 0.00 | 82 | 1022.2 |
| 20260506175546 | 57 | 157 | 2.0 | 4.0 | 0.00 | 0.00 | 0.00 | 83 | 1022.1 |
| 20260506175046 | 57 | 162 | 2.0 | 5.0 | 0.00 | 0.00 | 0.00 | 83 | 1022.2 |
| 20260506174551 | 56 | 156 | 1.0 | 6.0 | 0.00 | 0.00 | 0.00 | 84 | 1022.3 |
| 20260506174047 | 56 | 202 | 3.0 | 6.0 | 0.00 | 0.00 | 0.00 | 84 | 1022.2 |
| 20260506173547 | 56 | 147 | 3.0 | 6.0 | 0.00 | 0.00 | 0.00 | 84 | 1022.3 |
| 20260506173054 | 56 | 159 | 2.0 | 5.0 | 0.00 | 0.00 | 0.00 | 84 | 1022.4 |
| 20260506172551 | 56 | 221 | 1.0 | 5.0 | 0.00 | 0.00 | 0.00 | 84 | 1022.3 |
| 20260506172047 | 56 | 132 | 3.0 | 5.0 | 0.00 | 0.00 | 0.00 | 84 | 1022.2 |
| 20260506171555 | 56 | 215 | 2.0 | 4.0 | 0.00 | 0.00 | 0.00 | 84 | 1022.3 |
| 20260506171053 | 56 | 225 | 1.0 | 5.0 | 0.00 | 0.00 | 0.00 | 84 | 1022.3 |
| 20260506170549 | 55 | 225 | 2.0 | 6.0 | 0.00 | 0.00 | 0.00 | 84 | 1022.2 |
| 20260506170114 | 55 | 183 | 2.0 | 6.0 | 0.00 | 0.00 | 0.00 | 84 | 1022.3 |
| 20260506165550 | 55 | 183 | 3.0 | 5.0 | 0.00 | 0.00 | 0.00 | 84 | 1022.3 |
| 20260506165051 | 56 | 256 | 1.0 | 4.0 | 0.00 | 0.00 | 0.00 | 85 | 1022.1 |
| 20260506164556 | 55 | 243 | 1.0 | 4.0 | 0.00 | 0.00 | 0.00 | 85 | 1022.1 |
| 20260506164048 | 55 | 243 | 2.0 | 5.0 | 0.00 | 0.00 | 0.00 | 86 | 1022.0 |
| 20260506163551 | 55 | 186 | 3.0 | 6.0 | 0.00 | 0.00 | 0.00 | 86 | 1021.9 |
| 20260506163110 | 55 | 198 | 2.0 | 6.0 | 0.00 | 0.00 | 0.00 | 86 | 1021.9 |
| 20260506162548 | 55 | 193 | 3.0 | 6.0 | 0.00 | 0.00 | 0.00 | 86 | 1021.9 |
| 20260506162048 | 55 | 214 | 2.0 | 7.0 | 0.00 | 0.00 | 0.00 | 86 | 1021.8 |
| 20260506161556 | 55 | 182 | 4.0 | 7.0 | 0.00 | 0.00 | 0.00 | 86 | 1021.8 |
| 20260506161047 | 55 | 174 | 2.0 | 4.0 | 0.00 | 0.00 | 0.00 | 86 | 1021.7 |
| 20260506160547 | 55 | 205 | 1.0 | 2.0 | 0.00 | 0.00 | 0.00 | 87 | 1021.9 |
| 20260506160100 | 54 | 172 | 1.0 | 5.0 | 0.00 | 0.00 | 0.00 | 88 | 1021.9 |
| 20260506155547 | 54 | 186 | 0.0 | 5.0 | 0.00 | 0.00 | 0.00 | 88 | 1022.0 |
| 20260506155051 | 54 | 186 | 1.0 | 5.0 | 0.00 | 0.00 | 0.00 | 88 | 1022.2 |
| 20260506154604 | 54 | 219 | 0.0 | 4.0 | 0.00 | 0.00 | 0.00 | 89 | 1022.0 |
| 20260506154048 | 54 | 250 | 0.0 | 5.0 | 0.00 | 0.00 | 0.00 | 89 | 1022.0 |
| 20260506153546 | 54 | 210 | 2.0 | 5.0 | 0.00 | 0.00 | 0.00 | 89 | 1021.8 |
| 20260506153056 | 54 | 227 | 3.0 | 6.0 | 0.00 | 0.00 | 0.00 | 89 | 1021.8 |
| 20260506152547 | 54 | 171 | 3.0 | 6.0 | 0.00 | 0.00 | 0.00 | 89 | 1021.6 |
| 20260506152050 | 54 | 147 | 3.0 | 5.0 | 0.00 | 0.00 | 0.00 | 89 | 1021.8 |
| 20260506151555 | 54 | 167 | 1.0 | 5.0 | 0.00 | 0.00 | 0.00 | 89 | 1021.8 |
| 20260506151051 | 54 | 184 | 3.0 | 5.0 | 0.00 | 0.00 | 0.00 | 89 | 1021.9 |
| 20260506150550 | 54 | 147 | 2.0 | 5.0 | 0.00 | 0.00 | 0.00 | 89 | 1022.0 |
| 20260506150053 | 54 | 144 | 1.0 | 5.0 | 0.00 | 0.00 | 0.00 | 89 | 1021.9 |
| 20260506145549 | 54 | 211 | 1.0 | 3.0 | 0.00 | 0.00 | 0.00 | 89 | 1022.0 |
| 20260506145051 | 54 | 0 | 0.0 | 4.0 | 0.00 | 0.00 | 0.00 | 89 | 1021.9 |
| 20260506144603 | 54 | 165 | 1.0 | 4.0 | 0.00 | 0.00 | 0.00 | 89 | 1021.8 |
| 20260506144048 | 54 | 179 | 2.0 | 5.0 | 0.00 | 0.00 | 0.00 | 89 | 1021.6 |
| 20260506143548 | 54 | 201 | 3.0 | 6.0 | 0.00 | 0.00 | 0.00 | 88 | 1021.6 |
| 20260506143050 | 54 | 176 | 4.0 | 6.0 | 0.00 | 0.00 | 0.00 | 88 | 1021.2 |
| 20260506142549 | 54 | 192 | 3.0 | 6.0 | 0.00 | 0.00 | 0.00 | 88 | 1021.4 |
| 20260506142045 | 54 | 172 | 3.0 | 6.0 | 0.00 | 0.00 | 0.00 | 88 | 1021.6 |
| 20260506141549 | 54 | 199 | 3.0 | 4.0 | 0.00 | 0.00 | 0.00 | 88 | 1021.7 |
| 20260506141051 | 54 | 195 | 2.0 | 5.0 | 0.00 | 0.00 | 0.00 | 88 | 1021.7 |
| 20260506140547 | 54 | 218 | 2.0 | 6.0 | 0.00 | 0.00 | 0.00 | 88 | 1021.7 |
| 20260506140052 | 54 | 205 | 2.0 | 6.0 | 0.00 | 0.00 | 0.00 | 88 | 1021.5 |
| 20260506135545 | 54 | 167 | 2.0 | 6.0 | 0.00 | 0.00 | 0.00 | 88 | 1021.5 |
| 20260506135048 | 54 | 174 | 2.0 | 6.0 | 0.00 | 0.00 | 0.00 | 88 | 1021.5 |
| 20260506134552 | 54 | 181 | 2.0 | 4.0 | 0.00 | 0.00 | 0.00 | 88 | 1021.5 |
| 20260506134049 | 54 | 198 | 3.0 | 4.0 | 0.00 | 0.00 | 0.00 | 88 | 1021.4 |
| 20260506133545 | 54 | 173 | 1.0 | 4.0 | 0.00 | 0.00 | 0.00 | 88 | 1021.5 |
| 20260506133052 | 54 | 231 | 1.0 | 4.0 | 0.00 | 0.00 | 0.00 | 89 | 1021.3 |
| 20260506132548 | 54 | 217 | 2.0 | 5.0 | 0.00 | 0.00 | 0.00 | 89 | 1021.3 |
| 20260506132052 | 54 | 230 | 2.0 | 5.0 | 0.00 | 0.00 | 0.00 | 89 | 1021.0 |
| 20260506131551 | 54 | 181 | 1.0 | 5.0 | 0.00 | 0.00 | 0.00 | 90 | 1021.0 |
| 20260506131050 | 54 | 219 | 2.0 | 5.0 | 0.00 | 0.00 | 0.00 | 90 | 1021.0 |
| 20260506130548 | 54 | 214 | 2.0 | 4.0 | 0.00 | 0.00 | 0.00 | 90 | 1020.9 |
| 20260506130058 | 54 | 200 | 1.0 | 4.0 | 0.00 | 0.00 | 0.00 | 90 | 1020.9 |
| 20260506125550 | 54 | 180 | 1.0 | 5.0 | 0.00 | 0.00 | 0.00 | 91 | 1021.0 |
| 20260506125045 | 54 | 228 | 1.0 | 5.0 | 0.00 | 0.00 | 0.00 | 91 | 1020.9 |
| 20260506124552 | 53 | 186 | 2.0 | 5.0 | 0.00 | 0.00 | 0.00 | 91 | 1020.8 |
| 20260506124048 | 53 | 198 | 2.0 | 4.0 | 0.00 | 0.00 | 0.00 | 91 | 1020.8 |
| 20260506123545 | 53 | 204 | 2.0 | 4.0 | 0.00 | 0.00 | 0.00 | 92 | 1020.7 |
| 20260506123052 | 53 | 209 | 2.0 | 4.0 | 0.00 | 0.00 | 0.00 | 92 | 1020.7 |
| 20260506122544 | 53 | 174 | 2.0 | 3.0 | 0.00 | 0.00 | 0.00 | 92 | 1020.7 |
| 20260506122050 | 53 | 203 | 1.0 | 3.0 | 0.00 | 0.00 | 0.00 | 92 | 1020.8 |
| 20260506121556 | 53 | 231 | 1.0 | 4.0 | 0.00 | 0.00 | 0.00 | 92 | 1020.8 |
| 20260506121049 | 53 | 0 | 1.0 | 4.0 | 0.00 | 0.00 | 0.00 | 91 | 1020.7 |
| 20260506120548 | 53 | 188 | 1.0 | 4.0 | 0.00 | 0.00 | 0.00 | 91 | 1020.7 |
| 20260506120053 | 54 | 0 | 0.0 | 0.0 | 0.00 | 0.00 | 0.00 | 91 | 1020.7 |
| 20260506115548 | 54 | 0 | 0.0 | 3.0 | 0.00 | 0.00 | 0.00 | 91 | 1020.5 |
| 20260506115047 | 54 | 0 | 1.0 | 3.0 | 0.00 | 0.00 | 0.00 | 90 | 1020.5 |
| 20260506114556 | 54 | 174 | 1.0 | 3.0 | 0.00 | 0.00 | 0.00 | 90 | 1020.4 |
| 20260506114047 | 54 | 195 | 1.0 | 2.0 | 0.00 | 0.00 | 0.00 | 89 | 1020.6 |
| 20260506113547 | 54 | 214 | 0.0 | 1.0 | 0.00 | 0.00 | 0.00 | 89 | 1020.7 |
| 20260506113057 | 54 | 229 | 0.0 | 1.0 | 0.00 | 0.00 | 0.00 | 89 | 1020.7 |
| 20260506112548 | 54 | 202 | 0.0 | 5.0 | 0.00 | 0.00 | 0.00 | 88 | 1020.6 |
| 20260506112048 | 54 | 242 | 1.0 | 5.0 | 0.00 | 0.00 | 0.00 | 88 | 1020.6 |
| 20260506111556 | 54 | 221 | 2.0 | 5.0 | 0.00 | 0.00 | 0.00 | 88 | 1020.6 |
| 20260506111047 | 54 | 207 | 0.0 | 3.0 | 0.00 | 0.00 | 0.00 | 87 | 1020.4 |
| 20260506110550 | 55 | 176 | 1.0 | 3.0 | 0.00 | 0.00 | 0.00 | 87 | 1020.5 |
| 20260506110055 | 55 | 176 | 1.0 | 3.0 | 0.00 | 0.00 | 0.00 | 87 | 1020.4 |
| 20260506105548 | 55 | 0 | 0.0 | 2.0 | 0.00 | 0.00 | 0.00 | 87 | 1020.4 |
| 20260506105051 | 55 | 224 | 0.0 | 2.0 | 0.00 | 0.00 | 0.00 | 87 | 1020.5 |
| 20260506104559 | 55 | 166 | 0.0 | 3.0 | 0.00 | 0.00 | 0.00 | 87 | 1020.4 |
| 20260506104048 | 55 | 176 | 1.0 | 4.0 | 0.00 | 0.00 | 0.00 | 87 | 1020.3 |
| 20260506103547 | 55 | 201 | 2.0 | 4.0 | 0.00 | 0.00 | 0.00 | 87 | 1020.2 |
| 20260506103117 | 55 | 156 | 1.0 | 3.0 | 0.00 | 0.00 | 0.00 | 87 | 1020.1 |
| 20260506102547 | 55 | 0 | 0.0 | 2.0 | 0.00 | 0.00 | 0.00 | 87 | 1020.1 |
| 20260506102048 | 55 | 172 | 1.0 | 2.0 | 0.00 | 0.00 | 0.00 | 87 | 1020.2 |
| 20260506101557 | 55 | 122 | 0.0 | 1.0 | 0.00 | 0.00 | 0.00 | 87 | 1020.0 |
| 20260506101048 | 55 | 228 | 0.0 | 3.0 | 0.00 | 0.00 | 0.00 | 87 | 1019.9 |
| 20260506100548 | 55 | 180 | 1.0 | 3.0 | 0.00 | 0.00 | 0.00 | 87 | 1019.8 |
| 20260506100054 | 55 | 150 | 0.0 | 2.0 | 0.00 | 0.00 | 0.00 | 87 | 1019.8 |
| 20260506095549 | 55 | 0 | 0.0 | 1.0 | 0.00 | 0.00 | 0.00 | 87 | 1019.7 |
| 20260506095050 | 55 | 238 | 0.0 | 1.0 | 0.00 | 0.00 | 0.00 | 87 | 1019.8 |
| 20260506094604 | 55 | 231 | 0.0 | 1.0 | 0.00 | 0.00 | 0.00 | 87 | 1019.7 |
| 20260506094047 | 55 | 0 | 0.0 | 1.0 | 0.00 | 0.00 | 0.00 | 87 | 1019.8 |
| 20260506093548 | 55 | 0 | 0.0 | 1.0 | 0.00 | 0.00 | 0.00 | 87 | 1019.6 |
| 20260506093053 | 55 | 0 | 0.0 | 1.0 | 0.00 | 0.00 | 0.00 | 86 | 1019.6 |
| 20260506092548 | 55 | 231 | 0.0 | 1.0 | 0.00 | 0.00 | 0.00 | 86 | 1019.6 |
| 20260506092048 | 55 | 229 | 0.0 | 2.0 | 0.00 | 0.00 | 0.00 | 86 | 1019.5 |
| 20260506091602 | 55 | 238 | 0.0 | 3.0 | 0.00 | 0.00 | 0.00 | 86 | 1019.6 |
| 20260506091048 | 55 | 234 | 1.0 | 3.0 | 0.00 | 0.00 | 0.00 | 86 | 1019.6 |
| 20260506090546 | 55 | 228 | 0.0 | 3.0 | 0.00 | 0.00 | 0.00 | 86 | 1019.5 |
| 20260506090058 | 55 | 0 | 2.0 | 5.0 | 0.00 | 0.00 | 0.00 | 86 | 1019.6 |
| 20260506085547 | 55 | 228 | 1.0 | 5.0 | 0.00 | 0.00 | 0.00 | 86 | 1019.5 |